Погода в Киркенесе

Норвегия     69°43′37″N   30°02′41″E
темп.,
°C
ветер,
м/с
пор.,
м/с
влажн.,
%
обл.,
%
осадки,
мм/ч
давл.,
гПа
погр.,
м
4 декабря, сб
сб401:00−11ююз449850 0.1 101889
04:00−12ююз4410052 0.0 101981
07:00−13ююз339849 0.0 102085
10:00−14юз449647 0.0 102190
13:00−14ююз459646 0.0 102296
16:00−15ююз569947 0.0 1023101
19:00−15ююз6710048 0.0 1024119
22:00−15ююз689946 0.0 1024152
5 декабря, вс
вс501:00−15ююз7129743 0.0 1024231
04:00−15юз7169324 0.0 1023332
07:00−14юз817935 0.0 1023357
10:00−14юз918945 0.0 1023380
13:00−14юз10199836 0.0 1023406
16:00−14юз1121965 0.0 1023430
19:00−14юз1221945 0.0 1022438
22:00−14юз1220945 0.0 1022403
6 декабря, пн
пн601:00−14юз1318925 0.0 1022372
04:00−14юз1217915 0.0 1021342
07:00−14юз101589100 0.0 1021336
10:00−14юз91588100 0.0 1021347
13:00−14юз10169235 0.0 1022346
16:00−15юз916945 0.0 1022342
19:00−15юз10179626 0.0 1022360
22:00−16юз9179930 0.0 1022352
7 декабря, вт
вт701:00−16юз9169936 0.0 1023363
04:00−16юз8169935 0.0 1023340
07:00−17юз7149944 0.0 1024297
10:00−17юз7139946 0.0 1025267
13:00−17юз7139948 0.0 1026257
16:00−17ююз7129948 0.0 1026227
19:00−16ююз71110048 0.0 1027193
22:00−16ююз6910049 0.0 1028166
8 декабря, ср
ср801:00−17ююз6810069 0.0 1027146
04:00−17ююз6710076 0.0 1027128
07:00−17ююз5610083 0.0 1027112
10:00−17ююз5510090 0.0 1026103
13:00−17ююз5510083 0.0 102699
16:00−17ююз5510084 0.0 102596
19:00−17ююз5510082 0.0 102596
22:00−17ююз5510068 0.0 102596